Weather History for KBFM - January, 2013

Change the Weather History Date:

Monday, January 7, 2013

  Actual Average Record
Temperature  
Mean Temperature 50 °F -  
Max Temperature 61 °F 57 °F 71 °F (2007)
Min Temperature 39 °F 39 °F 17 °F (2014)
Degree Days  
Heating Degree Days 15    
Moisture  
Dew Point 39 °F    
Average Humidity 70    
Maximum Humidity 89    
Minimum Humidity 35    
Precipitation  
Precipitation 0.00 in - - ()
Sea Level Pressure  
Sea Level Pressure 30.28 in    
Wind  
Wind Speed 7 mph (NE)    
Max Wind Speed 10 mph    
Max Gust Speed -    
Visibility 10 miles    
Events      
Averages and records for this station are not official NWS values.
T = Trace of Precipitation, MM = Missing Value Source: NWS Daily Summary

Daily Weather History Graph

Daily Weather History Graph

Search for Another Location

Airport or City:

Trip Planner

Search our weather history database for the weather conditions in past years. The results will help you decide how hot, cold, wet, or windy it might be!

Date:

Astronomy

Jan. 07, 2013 Rise Set
Actual Time 6:50 AM CST 5:07 PM CST
Civil Twilight 6:24 AM CST 5:33 PM CST
Nautical Twilight 5:54 AM CST 6:03 PM CST
Astronomical Twilight 5:25 AM CST 6:32 PM CST
Moon 2:18 AM CST (1/7) 1:14 PM CST (1/7)
Length of Visible Light 11h 09m
Length of Day
10h 16m
Waning Crescent, 22% of the Moon is Illuminated
Jan 7
Waning Crescent
Jan 11
New
Jan 18
First Quarter
Jan 26
Full
Feb 3
Last Quarter

Hourly Weather History & Observations

Time (CST) Temp. Windchill Dew Point Humidity Pressure Visibility Wind Dir Wind Speed Gust Speed Precip Events Conditions
12:53 AM 44.1 °F 39.5 °F 37.9 °F 79% 30.30 in 10.0 mi North 8.1 mph - N/A   Clear
1:53 AM 43.0 °F 38.2 °F 39.0 °F 86% 30.29 in 10.0 mi NNE 8.1 mph - N/A   Clear
2:53 AM 43.0 °F 37.2 °F 37.9 °F 82% 30.29 in 10.0 mi NNE 10.4 mph - N/A   Clear
3:53 AM 42.1 °F 37.7 °F 37.9 °F 85% 30.30 in 10.0 mi NNE 6.9 mph - N/A   Clear
4:53 AM 41.0 °F 35.8 °F 37.9 °F 89% 30.30 in 10.0 mi NNE 8.1 mph - N/A   Clear
5:53 AM 39.9 °F 35.1 °F 37.0 °F 89% 30.30 in 10.0 mi North 6.9 mph - N/A   Clear
6:53 AM 39.9 °F 35.8 °F 37.0 °F 89% 30.31 in 10.0 mi North 5.8 mph - N/A   Clear
7:53 AM 42.1 °F 38.4 °F 37.0 °F 82% 30.33 in 10.0 mi North 5.8 mph - N/A   Clear
8:53 AM 44.1 °F 39.0 °F 37.0 °F 76% 30.35 in 10.0 mi NNE 9.2 mph - N/A   Clear
9:53 AM 46.9 °F - 37.9 °F 71% 30.35 in 10.0 mi NNE 8.1 mph - N/A   Clear
10:53 AM 51.1 °F - 37.9 °F 61% 30.32 in 10.0 mi NNE 8.1 mph - N/A   Clear
11:53 AM 55.9 °F - 37.0 °F 49% 30.29 in 10.0 mi NNE 5.8 mph - N/A   Clear
1:53 PM 60.1 °F - 33.1 °F 36% 30.25 in 10.0 mi NNE 3.5 mph - N/A   Clear
2:53 PM 61.0 °F - 33.1 °F 35% 30.24 in 10.0 mi NE 3.5 mph - N/A   Clear
3:53 PM 60.1 °F - 34.0 °F 38% 30.23 in 10.0 mi ENE 3.5 mph - N/A   Clear
5:53 PM 54.0 °F - 43.0 °F 66% 30.25 in 10.0 mi NNE 4.6 mph - N/A   Clear
6:53 PM 54.0 °F - 41.0 °F 62% 30.26 in 10.0 mi Calm Calm - N/A   Mostly Cloudy
7:53 PM 52.0 °F - 42.1 °F 69% 30.25 in 10.0 mi NE 5.8 mph - N/A   Scattered Clouds
8:53 PM 50.0 °F - 44.1 °F 80% 30.25 in 10.0 mi ENE 3.5 mph - N/A   Clear
9:53 PM 51.1 °F - 43.0 °F 74% 30.24 in 10.0 mi East 9.2 mph - N/A   Clear
10:53 PM 51.1 °F - 41.0 °F 68% 30.21 in 10.0 mi ENE 9.2 mph - N/A   Clear
11:53 PM 48.9 °F - 42.1 °F 77% 30.23 in 10.0 mi ENE 5.8 mph - N/A   Clear